Weather History for KBHM - February, 2012

Change the Weather History Date:

Thursday, February 2, 2012

  Actual Average Record
Temperature  
Mean Temperature 59 °F 45 °F  
Max Temperature 69 °F 56 °F 77 °F (1989)
Min Temperature 49 °F 35 °F 7 °F (1951)
Degree Days  
Heating Degree Days 6 20  
Month to date heating degree days 12 40  
Since 1 July heating degree days 1393 1745  
Growing Degree Days 9 (Base 50)    
Moisture  
Dew Point 51 °F    
Average Humidity 71    
Maximum Humidity 100    
Minimum Humidity 42    
Precipitation  
Precipitation T in 0.16 in 2.02 in (1982)
Month to date precipitation 0.38 0.33  
Year to date precipitation 6.28 5.17  
Snow  
Snow 0.00 in 0.00 in - ()
Month to date snowfall 0.0 0.0  
Since 1 July snowfall T 0.7  
Snow Depth 0.00 in    
Sea Level Pressure  
Sea Level Pressure 30.21 in    
Wind  
Wind Speed 6 mph (NNW)    
Max Wind Speed 13 mph    
Max Gust Speed 15 mph    
Visibility 6 miles    
Events Fog    
T = Trace of Precipitation, MM = Missing Value Source: NWS Daily Summary

Daily Weather History Graph

Daily Weather History Graph

Search for Another Location

Airport or City:

Trip Planner

Search our weather history database for the weather conditions in past years. The results will help you decide how hot, cold, wet, or windy it might be!

Date:

Astronomy

Feb. 02, 2012 Rise Set
Actual Time 6:42 AM CST 5:18 PM CST
Civil Twilight 6:16 AM CST 5:44 PM CST
Nautical Twilight 5:47 AM CST 6:14 PM CST
Astronomical Twilight 5:17 AM CST 6:43 PM CST
Moon 12:35 PM CST 2:19 AM CST
Length of Visible Light 11h 28m
Length of Day
10h 35m
Waxing Gibbous, 74% of the Moon is Illuminated
Feb 2
Waxing Gibbous
Feb 7
Full
Feb 14
Last Quarter
Feb 21
New
Feb 29
First Quarter

Hourly Weather History & Observations

Time (CST) Temp. Dew Point Humidity Pressure Visibility Wind Dir Wind Speed Gust Speed Precip Events Conditions
12:43 AM 57.2 °F 57.2 °F 100% 30.13 in 1.5 mi South 5.8 mph - N/A   Overcast
12:53 AM 57.9 °F 57.9 °F 100% 30.12 in 1.5 mi SSW 6.9 mph - N/A   Overcast
1:00 AM 59.0 °F 57.2 °F 94% 30.13 in 2.0 mi SSW 8.1 mph - N/A   Overcast
1:45 AM 59.0 °F 57.2 °F 94% 30.14 in 1.5 mi SW 4.6 mph - N/A   Overcast
1:53 AM 59.0 °F 57.9 °F 96% 30.14 in 1.5 mi WSW 6.9 mph - N/A   Overcast
2:29 AM 59.0 °F 57.2 °F 94% 30.16 in 0.2 mi West 8.1 mph - 0.00 in Fog Light Drizzle
2:53 AM 59.0 °F 57.9 °F 96% 30.15 in 0.5 mi WNW 5.8 mph - 0.00 in Fog Light Drizzle
3:20 AM 59.0 °F 57.2 °F 94% 30.17 in 1.0 mi WNW 5.8 mph - 0.00 in   Overcast
3:48 AM 59.0 °F 57.2 °F 94% 30.17 in 1.0 mi West 5.8 mph - 0.00 in   Overcast
3:53 AM 59.0 °F 57.9 °F 96% 30.17 in 1.0 mi West 4.6 mph - 0.00 in   Overcast
4:06 AM 59.0 °F 57.2 °F 94% 30.18 in 1.0 mi WNW 5.8 mph - N/A   Overcast
4:53 AM 57.9 °F 55.9 °F 93% 30.18 in 1.0 mi NNW 6.9 mph - N/A   Overcast
5:00 AM 57.2 °F 55.4 °F 94% 30.19 in 1.0 mi NW 5.8 mph - N/A   Overcast
5:38 AM 57.2 °F 53.6 °F 88% 30.21 in 1.0 mi NW 8.1 mph - N/A   Overcast
5:53 AM 57.0 °F 54.0 °F 89% 30.21 in 1.0 mi NW 8.1 mph - N/A   Overcast
6:04 AM 57.2 °F 53.6 °F 88% 30.22 in 3.0 mi NW 5.8 mph - N/A   Overcast
6:11 AM 57.2 °F 53.6 °F 88% 30.22 in 7.0 mi NW 4.6 mph - N/A   Overcast
6:53 AM 55.9 °F 54.0 °F 93% 30.23 in 7.0 mi North 4.6 mph - N/A   Overcast
7:23 AM 55.4 °F 53.6 °F 94% 30.24 in 10.0 mi North 4.6 mph - N/A   Mostly Cloudy
7:53 AM 55.9 °F 53.1 °F 90% 30.24 in 10.0 mi NE 8.1 mph - N/A   Overcast
8:53 AM 57.0 °F 53.1 °F 87% 30.26 in 10.0 mi NNE 6.9 mph - N/A   Mostly Cloudy
9:53 AM 60.1 °F 54.0 °F 80% 30.27 in 10.0 mi NNE 6.9 mph - N/A   Overcast
10:08 AM 60.8 °F 53.6 °F 77% 30.28 in 10.0 mi North 6.9 mph - N/A   Overcast
10:53 AM 61.0 °F 53.1 °F 75% 30.27 in 10.0 mi North 8.1 mph - N/A   Mostly Cloudy
11:42 AM 62.6 °F 53.6 °F 72% 30.26 in 10.0 mi NNW 8.1 mph - N/A   Scattered Clouds
11:53 AM 63.0 °F 52.0 °F 67% 30.25 in 10.0 mi NNW 5.8 mph - N/A   Scattered Clouds
12:53 PM 64.9 °F 48.9 °F 56% 30.22 in 10.0 mi ENE 8.1 mph - N/A   Clear
1:53 PM 68.0 °F 46.9 °F 47% 30.20 in 10.0 mi NNE 8.1 mph - N/A   Clear
2:53 PM 68.0 °F 44.1 °F 42% 30.20 in 10.0 mi North 6.9 mph - N/A   Clear
3:53 PM 66.9 °F 44.1 °F 44% 30.21 in 10.0 mi North 6.9 mph - N/A   Clear
4:53 PM 63.0 °F 44.1 °F 50% 30.21 in 10.0 mi North 8.1 mph - N/A   Clear
5:53 PM 59.0 °F 44.1 °F 58% 30.23 in 10.0 mi Calm Calm - N/A   Clear
6:53 PM 57.0 °F 42.1 °F 57% 30.25 in 10.0 mi NE 3.5 mph - N/A   Clear
7:53 PM 55.9 °F 42.1 °F 60% 30.27 in 10.0 mi Calm Calm - N/A   Clear
8:53 PM 50.0 °F 43.0 °F 77% 30.28 in 10.0 mi Calm Calm - N/A   Clear
9:53 PM 50.0 °F 42.1 °F 74% 30.28 in 10.0 mi NE 3.5 mph - N/A   Clear
10:53 PM 57.0 °F 36.0 °F 45% 30.27 in 10.0 mi ENE 5.8 mph - N/A   Clear
11:53 PM 55.9 °F 35.1 °F 45% 30.27 in 10.0 mi ENE 6.9 mph - N/A   Clear